Mullan Pass, MT

12:40 PM MDT on March 28, 2017 (GMT -0600)
Mullan Pass

Weather History for KMLP - January, 2014

Change the Weather History Date:

Sunday, January 5, 2014

  Actual Average (K3TH) Record (K3TH)
Temperature  
Mean Temperature 14 °F -  
Max Temperature 17 °F 33 °F 46 °F (2001)
Min Temperature 12 °F 27 °F 28 °F (1997)
Degree Days  
Heating Degree Days 50    
Moisture  
Dew Point 10 °F    
Average Humidity 85    
Maximum Humidity 95    
Minimum Humidity 77    
Precipitation  
Precipitation 0.00 in - - ()
Sea Level Pressure  
Sea Level Pressure 30.39 in    
Wind  
Wind Speed 6 mph (NW)    
Max Wind Speed 10 mph    
Max Gust Speed -    
Visibility 10 miles    
Events      
Averages and records for this station are not official NWS values.
T = Trace of Precipitation, MM = Missing Value Source: NWS Daily Summary

Daily Weather History Graph

Daily Weather History Graph

Search for Another Location

Airport or City:

Trip Planner

Search our weather history database for the weather conditions in past years. The results will help you decide how hot, cold, wet, or windy it might be!

Date:

Astronomy

Jan. 05, 2014 Rise Set
Actual Time 7:29 AM PST 4:06 PM PST
Civil Twilight 6:54 AM PST 4:42 PM PST
Nautical Twilight 6:15 AM PST 5:21 PM PST
Astronomical Twilight 5:38 AM PST 5:58 PM PST
Moon 9:51 AM PST (1/5) 10:04 PM PST (1/5)
Length of Visible Light 9h 47m
Length of Day
8h 36m
Waxing Crescent, 25% of the Moon is Illuminated
Jan 5
Waxing Crescent
Jan 7
First Quarter
Jan 15
Full
Jan 23
Last Quarter
Jan 30
New

Hourly Weather History & Observations

Time (PST) Temp. Windchill Dew Point Humidity Pressure Visibility Wind Dir Wind Speed Gust Speed Precip Events Conditions
12:00 AM 12.2 °F 4.3 °F 10.4 °F 92% 30.13 in 10.0 mi Variable 4.6 mph - N/A   Overcast
12:10 AM 14.0 °F 3.9 °F 10.4 °F 86% 30.14 in 9.0 mi Variable 6.9 mph - N/A   Overcast
12:53 AM 14.0 °F 3.9 °F 10.9 °F 88% 30.37 in 10.0 mi NW 6.9 mph - N/A   Overcast
1:53 AM 14.0 °F 1.2 °F 10.9 °F 88% 30.41 in 10.0 mi NW 10.4 mph - N/A   Overcast
2:45 AM 12.2 °F 0.7 °F 10.4 °F 92% 30.18 in 10.0 mi NNW 8.1 mph - N/A   Mostly Cloudy
2:53 AM 12.9 °F 2.6 °F 9.0 °F 84% 30.41 in 10.0 mi NNW 6.9 mph - N/A   Scattered Clouds
3:27 AM 12.2 °F 1.7 °F 8.6 °F 85% 30.18 in 10.0 mi NNW 6.9 mph - N/A   Mostly Cloudy
3:53 AM 12.0 °F 2.7 °F 8.1 °F 84% 30.45 in 10.0 mi NNW 5.8 mph - N/A   Mostly Cloudy
4:02 AM 12.2 °F 2.9 °F 8.6 °F 85% 30.20 in 10.0 mi NNW 5.8 mph - N/A   Scattered Clouds
4:21 AM 12.2 °F 6.1 °F 8.6 °F 85% 30.20 in 10.0 mi NNW 3.5 mph - N/A   Mostly Cloudy
4:29 AM 12.2 °F 4.3 °F 8.6 °F 85% 30.21 in 10.0 mi NNW 4.6 mph - N/A   Scattered Clouds
4:53 AM 12.9 °F 3.8 °F 8.1 °F 81% 30.47 in 10.0 mi NNW 5.8 mph - N/A   Clear
5:53 AM 12.0 °F 5.9 °F 8.1 °F 84% 30.49 in 10.0 mi NW 3.5 mph - N/A   Clear
6:53 AM 12.0 °F 5.9 °F 7.0 °F 80% 30.53 in 10.0 mi NW 3.5 mph - N/A   Clear
7:53 AM 12.0 °F 5.9 °F 6.1 °F 77% 30.55 in 10.0 mi NNE 3.5 mph - N/A   Clear
8:53 AM 12.9 °F - 10.9 °F 92% 30.56 in 10.0 mi Calm Calm - N/A   Clear
9:53 AM 14.0 °F 8.2 °F 12.9 °F 95% 30.56 in 10.0 mi South 3.5 mph - N/A   Partly Cloudy
10:53 AM 17.1 °F - 15.1 °F 92% 30.55 in 10.0 mi Calm Calm - N/A   Mostly Cloudy
12:04 PM 15.8 °F 8.6 °F 10.4 °F 79% 30.31 in 10.0 mi Variable 4.6 mph - N/A   Scattered Clouds
12:53 PM 16.0 °F 6.3 °F 12.0 °F 84% 30.54 in 10.0 mi Variable 6.9 mph - N/A   Unknown
4:53 PM 14.0 °F 6.5 °F 8.1 °F 77% 30.56 in 10.0 mi SW 4.6 mph - N/A   Clear
8:53 PM 14.0 °F 5.1 °F 9.0 °F 80% 30.55 in 10.0 mi SSW 5.8 mph - N/A   Partly Cloudy